カタログに戻る

LEMUR 2 ANDIS

運用中科学SSO
NORAD 42838·PAYLOAD·🇺🇸 United States

打ち上げ Jul 14, 2017 から Baikonur Cosmodrome

Loading…

次のパス (今後24時間)

TLE

最新Source: Space-Track

元期: Sep 14, 2026, 11:10 UTC

1 42838U 17042P   26257.46588209  .00018189  00000-0  48402-3 0  9991
2 42838  97.3701  78.4165 0008551  48.6059 311.5920 15.38232237502167

AllMySatでLEMUR 2 ANDISをリアルタイム追跡

Download on the App Store